Time,TemperatureF,DewpointF,PressureIn,WindDirection,WindDirectionDegrees,WindSpeedMPH,WindSpeedGustMPH,Humidity,HourlyPrecipIn,Conditions,Clouds,dailyrainin,SoftwareType,DateUTC
2013-01-31 00:00:00,53.5,53.5,29.63,North,360,0.0,13.3,100,0.00,,,0.07,Rainwise IP-100,2013-01-31 05:00:00,
2013-01-31 00:05:00,53.3,53.5,29.63,North,360,9.3,9.8,100,0.00,,,0.00,Rainwise IP-100,2013-01-31 05:05:00,
2013-01-31 00:10:00,53.2,53.0,29.61,SSE,157,5.8,10.5,100,0.00,,,0.00,Rainwise IP-100,2013-01-31 05:10:00,
2013-01-31 00:15:00,53.3,53.5,29.61,North,360,7.2,12.8,100,0.00,,,0.00,Rainwise IP-100,2013-01-31 05:15:00,
2013-01-31 00:20:00,53.4,53.5,29.61,SSE,157,5.8,10.3,100,0.00,,,0.00,Rainwise IP-100,2013-01-31 05:20:00,
2013-01-31 00:25:00,53.4,53.5,29.60,North,360,3.0,15.6,100,0.00,,,0.00,Rainwise IP-100,2013-01-31 05:25:00,
2013-01-31 00:30:00,53.4,53.5,29.60,North,360,6.8,10.0,100,0.00,,,0.00,Rainwise IP-100,2013-01-31 05:30:00,
2013-01-31 00:35:00,53.4,53.5,29.59,North,360,11.9,15.6,100,0.00,,,0.00,Rainwise IP-100,2013-01-31 05:35:00,
2013-01-31 00:40:00,53.4,53.5,29.58,North,360,9.3,13.3,100,0.00,,,0.00,Rainwise IP-100,2013-01-31 05:40:00,
2013-01-31 00:45:00,53.4,53.5,29.58,SSE,157,4.0,13.3,100,0.00,,,0.00,Rainwise IP-100,2013-01-31 05:45:00,
2013-01-31 00:50:00,53.4,53.5,29.58,North,360,7.5,12.6,100,0.00,,,0.00,Rainwise IP-100,2013-01-31 05:50:00,
2013-01-31 00:55:00,53.3,53.5,29.58,SSE,157,4.7,16.6,100,0.00,,,0.00,Rainwise IP-100,2013-01-31 05:55:00,
2013-01-31 01:00:00,53.4,53.5,29.57,North,360,7.5,13.8,100,0.00,,,0.00,Rainwise IP-100,2013-01-31 06:00:00,
2013-01-31 01:05:00,53.3,53.5,29.57,ESE,112,6.5,9.6,99,0.00,,,0.00,Rainwise IP-100,2013-01-31 06:05:00,
2013-01-31 01:10:00,53.2,53.0,29.57,North,360,4.0,11.7,99,0.00,,,0.00,Rainwise IP-100,2013-01-31 06:10:00,
2013-01-31 01:15:00,53.2,53.0,29.56,North,360,10.0,11.7,99,0.00,,,0.00,Rainwise IP-100,2013-01-31 06:15:00,
2013-01-31 01:20:00,53.3,53.5,29.56,NW,315,0.0,15.4,99,0.00,,,0.00,Rainwise IP-100,2013-01-31 06:20:00,
2013-01-31 01:23:00,53.4,53.5,29.55,North,360,5.8,15.4,99,0.00,,,0.00,Rainwise IP-100,2013-01-31 06:23:00,
2013-01-31 01:28:00,53.5,53.5,29.54,North,360,1.9,20.1,99,0.00,,,0.00,Rainwise IP-100,2013-01-31 06:28:00,
2013-01-31 01:33:00,53.6,53.5,29.54,North,360,6.5,16.1,99,0.00,,,0.00,Rainwise IP-100,2013-01-31 06:33:00,
2013-01-31 01:38:00,53.6,53.5,29.55,SSE,157,2.8,15.2,99,0.00,,,0.00,Rainwise IP-100,2013-01-31 06:38:00,
2013-01-31 01:43:00,53.7,53.5,29.53,ESE,112,9.8,16.6,99,0.00,,,0.00,Rainwise IP-100,2013-01-31 06:43:00,
2013-01-31 01:48:00,53.9,54.0,29.53,North,360,0.0,17.5,99,0.00,,,0.00,Rainwise IP-100,2013-01-31 06:48:00,
2013-01-31 01:53:00,53.9,54.0,29.53,East,90,3.3,14.9,99,0.00,,,0.00,Rainwise IP-100,2013-01-31 06:53:00,
2013-01-31 01:58:00,53.9,54.0,29.51,North,360,6.8,15.4,99,0.00,,,0.00,Rainwise IP-100,2013-01-31 06:58:00,
2013-01-31 02:03:00,53.8,53.5,29.51,NNW,337,1.9,14.2,98,0.00,,,0.00,Rainwise IP-100,2013-01-31 07:03:00,
2013-01-31 02:08:00,53.6,53.0,29.51,North,360,1.6,14.2,98,0.00,,,0.00,Rainwise IP-100,2013-01-31 07:08:00,
2013-01-31 02:13:00,53.5,53.0,29.50,SSE,157,2.6,11.4,98,0.00,,,0.00,Rainwise IP-100,2013-01-31 07:13:00,
2013-01-31 02:18:00,53.5,53.5,29.51,South,180,4.4,22.4,99,0.00,,,0.00,Rainwise IP-100,2013-01-31 07:18:00,
2013-01-31 02:23:00,53.6,53.5,29.50,SSE,157,7.0,12.1,99,0.00,,,0.00,Rainwise IP-100,2013-01-31 07:23:00,
2013-01-31 02:28:00,53.5,53.5,29.49,North,360,8.9,17.3,99,0.00,,,0.00,Rainwise IP-100,2013-01-31 07:28:00,
2013-01-31 02:33:00,53.3,53.5,29.49,NW,315,9.3,14.7,99,0.00,,,0.00,Rainwise IP-100,2013-01-31 07:33:00,
2013-01-31 02:38:00,53.2,53.0,29.49,SSE,157,4.0,12.6,99,0.00,,,0.00,Rainwise IP-100,2013-01-31 07:38:00,
2013-01-31 02:43:00,53.1,53.0,29.48,North,360,10.7,13.1,99,0.00,,,0.00,Rainwise IP-100,2013-01-31 07:43:00,
2013-01-31 02:48:00,53.0,53.0,29.48,South,180,7.2,19.8,99,0.00,,,0.00,Rainwise IP-100,2013-01-31 07:48:00,
2013-01-31 02:53:00,53.0,53.0,29.47,North,360,7.9,17.3,99,0.00,,,0.00,Rainwise IP-100,2013-01-31 07:53:00,
2013-01-31 02:58:00,53.0,53.0,29.46,NW,315,5.6,19.4,99,0.00,,,0.00,Rainwise IP-100,2013-01-31 07:58:00,
2013-01-31 03:03:00,52.9,53.0,29.46,North,360,6.3,13.1,99,0.00,,,0.00,Rainwise IP-100,2013-01-31 08:03:00,
2013-01-31 03:08:00,52.9,53.0,29.45,North,360,2.8,18.0,99,0.00,,,0.00,Rainwise IP-100,2013-01-31 08:08:00,
2013-01-31 03:13:00,52.8,53.0,29.43,North,360,5.4,17.0,99,0.00,,,0.00,Rainwise IP-100,2013-01-31 08:13:00,
2013-01-31 03:18:00,52.7,53.0,29.43,East,90,6.5,14.2,99,0.00,,,0.00,Rainwise IP-100,2013-01-31 08:18:00,
2013-01-31 03:23:00,52.7,53.0,29.43,North,360,7.2,13.3,99,0.00,,,0.00,Rainwise IP-100,2013-01-31 08:23:00,
2013-01-31 03:28:00,52.7,53.0,29.43,North,360,4.2,19.6,99,0.00,,,0.00,Rainwise IP-100,2013-01-31 08:28:00,
2013-01-31 03:33:00,52.8,53.0,29.42,North,360,8.2,21.9,99,0.00,,,0.00,Rainwise IP-100,2013-01-31 08:33:00,
2013-01-31 03:38:00,52.8,52.0,29.40,ESE,112,3.0,16.1,98,0.00,,,0.00,Rainwise IP-100,2013-01-31 08:38:00,
2013-01-31 03:43:00,52.8,52.0,29.40,ESE,112,4.4,17.0,98,0.00,,,0.00,Rainwise IP-100,2013-01-31 08:43:00,
2013-01-31 03:48:00,52.6,52.0,29.39,North,360,9.3,12.8,98,0.00,,,0.00,Rainwise IP-100,2013-01-31 08:48:00,
2013-01-31 03:53:00,52.6,52.0,29.39,SSE,157,6.8,14.0,98,0.00,,,0.00,Rainwise IP-100,2013-01-31 08:53:00,
2013-01-31 03:58:00,52.6,52.0,29.39,ESE,112,1.9,20.8,98,0.00,,,0.00,Rainwise IP-100,2013-01-31 08:58:00,
2013-01-31 04:03:00,52.7,53.0,29.39,North,360,10.7,14.5,99,0.00,,,0.00,Rainwise IP-100,2013-01-31 09:03:00,
2013-01-31 04:08:00,52.8,52.0,29.39,North,360,15.4,15.9,98,0.00,,,0.00,Rainwise IP-100,2013-01-31 09:08:00,
2013-01-31 04:13:00,52.9,52.0,29.38,North,360,16.8,17.0,98,0.00,,,0.00,Rainwise IP-100,2013-01-31 09:13:00,
2013-01-31 04:16:00,52.9,52.0,29.37,South,180,8.2,17.5,98,0.00,,,0.00,Rainwise IP-100,2013-01-31 09:16:00,
2013-01-31 04:21:00,52.9,52.0,29.37,East,90,6.3,21.7,98,0.00,,,0.00,Rainwise IP-100,2013-01-31 09:21:00,
2013-01-31 04:26:00,52.9,52.0,29.36,South,180,3.0,22.9,98,0.00,,,0.00,Rainwise IP-100,2013-01-31 09:26:00,
2013-01-31 04:31:00,52.8,52.0,29.35,SSE,157,10.3,15.9,98,0.00,,,0.00,Rainwise IP-100,2013-01-31 09:31:00,
2013-01-31 04:36:00,52.7,52.0,29.34,SSE,157,11.4,13.8,98,0.00,,,0.00,Rainwise IP-100,2013-01-31 09:36:00,
2013-01-31 04:41:00,52.6,52.0,29.33,South,180,4.2,14.9,98,0.00,,,0.00,Rainwise IP-100,2013-01-31 09:41:00,
2013-01-31 04:46:00,52.4,51.0,29.33,SSW,202,10.5,12.4,98,0.00,,,0.00,Rainwise IP-100,2013-01-31 09:46:00,
2013-01-31 04:51:00,52.1,51.0,29.33,South,180,3.5,16.6,98,0.00,,,0.00,Rainwise IP-100,2013-01-31 09:51:00,
2013-01-31 04:56:00,52.0,51.0,29.33,SSE,157,7.5,15.9,98,0.00,,,0.00,Rainwise IP-100,2013-01-31 09:56:00,
2013-01-31 05:01:00,52.1,51.0,29.32,South,180,9.3,13.1,98,0.00,,,0.00,Rainwise IP-100,2013-01-31 10:01:00,
2013-01-31 05:06:00,52.2,51.0,29.31,South,180,4.2,13.8,98,0.00,,,0.00,Rainwise IP-100,2013-01-31 10:06:00,
2013-01-31 05:11:00,52.3,51.0,29.31,SSW,202,8.6,18.4,98,0.00,,,0.00,Rainwise IP-100,2013-01-31 10:11:00,
2013-01-31 05:16:00,52.4,51.0,29.31,South,180,11.0,12.8,98,0.00,,,0.00,Rainwise IP-100,2013-01-31 10:16:00,
2013-01-31 05:21:00,52.6,52.0,29.31,South,180,15.4,17.3,98,0.00,,,0.00,Rainwise IP-100,2013-01-31 10:21:00,
2013-01-31 05:26:00,52.8,53.0,29.30,ESE,112,4.2,18.9,99,0.00,,,0.00,Rainwise IP-100,2013-01-31 10:26:00,
2013-01-31 05:31:00,53.0,53.0,29.31,SSE,157,7.0,17.3,99,0.00,,,0.00,Rainwise IP-100,2013-01-31 10:31:00,
2013-01-31 05:36:00,53.2,53.0,29.30,SSW,202,15.2,20.3,99,0.00,,,0.00,Rainwise IP-100,2013-01-31 10:36:00,
2013-01-31 05:41:00,53.3,53.5,29.30,SSE,157,15.4,17.0,99,0.06,,,0.01,Rainwise IP-100,2013-01-31 10:41:00,
2013-01-31 05:46:00,53.3,53.5,29.30,NE,45,6.5,19.1,99,0.06,,,0.01,Rainwise IP-100,2013-01-31 10:46:00,
2013-01-31 05:51:00,53.4,53.5,29.30,South,180,7.2,16.1,99,0.12,,,0.03,Rainwise IP-100,2013-01-31 10:51:00,
2013-01-31 05:56:00,53.5,53.5,29.29,North,360,5.1,20.3,99,0.24,,,0.05,Rainwise IP-100,2013-01-31 10:56:00,
2013-01-31 06:01:00,53.3,53.5,29.30,North,360,1.9,14.2,99,0.18,,,0.06,Rainwise IP-100,2013-01-31 11:01:00,
2013-01-31 06:06:00,53.2,53.0,29.28,South,180,7.7,21.2,100,0.12,,,0.07,Rainwise IP-100,2013-01-31 11:06:00,
2013-01-31 06:11:00,52.9,53.0,29.27,North,360,9.1,13.1,100,0.06,,,0.07,Rainwise IP-100,2013-01-31 11:11:00,
2013-01-31 06:16:00,52.8,53.0,29.26,North,360,8.4,16.3,100,0.00,,,0.07,Rainwise IP-100,2013-01-31 11:16:00,
2013-01-31 06:21:00,53.0,53.0,29.26,ENE,67,2.1,18.2,100,0.00,,,0.07,Rainwise IP-100,2013-01-31 11:21:00,
2013-01-31 06:26:00,53.3,53.5,29.25,SE,135,3.7,16.8,100,0.12,,,0.09,Rainwise IP-100,2013-01-31 11:26:00,
2013-01-31 06:31:00,53.5,53.5,29.25,SE,135,4.0,16.8,100,0.24,,,0.11,Rainwise IP-100,2013-01-31 11:31:00,
2013-01-31 06:36:00,53.5,53.5,29.24,SSE,157,5.6,18.9,100,0.18,,,0.12,Rainwise IP-100,2013-01-31 11:36:00,
2013-01-31 06:41:00,53.3,53.5,29.23,North,360,6.1,18.4,100,0.18,,,0.14,Rainwise IP-100,2013-01-31 11:41:00,
2013-01-31 06:46:00,53.2,53.0,29.23,North,360,8.2,20.8,100,0.18,,,0.16,Rainwise IP-100,2013-01-31 11:46:00,
2013-01-31 06:51:00,53.2,53.0,29.22,North,360,7.7,21.9,100,0.12,,,0.17,Rainwise IP-100,2013-01-31 11:51:00,
2013-01-31 06:56:00,53.2,53.0,29.22,North,360,13.5,17.7,100,0.18,,,0.18,Rainwise IP-100,2013-01-31 11:56:00,
2013-01-31 07:01:00,53.2,53.0,29.20,SE,135,17.0,17.0,100,0.12,,,0.18,Rainwise IP-100,2013-01-31 12:01:00,
2013-01-31 07:06:00,53.3,53.5,29.20,SSE,157,12.1,17.0,100,0.12,,,0.20,Rainwise IP-100,2013-01-31 12:06:00,
2013-01-31 07:11:00,53.5,53.5,29.20,SSE,157,11.9,16.8,100,0.24,,,0.22,Rainwise IP-100,2013-01-31 12:11:00,
2013-01-31 07:16:00,53.6,53.5,29.19,SSE,157,10.7,15.2,100,0.30,,,0.25,Rainwise IP-100,2013-01-31 12:16:00,
2013-01-31 07:21:00,53.7,53.5,29.19,North,360,2.8,17.0,100,0.36,,,0.28,Rainwise IP-100,2013-01-31 12:21:00,
2013-01-31 07:26:00,53.9,54.0,29.18,SSE,157,12.1,13.1,100,0.30,,,0.31,Rainwise IP-100,2013-01-31 12:26:00,
2013-01-31 07:31:00,54.0,54.0,29.19,North,360,16.6,25.2,100,0.42,,,0.35,Rainwise IP-100,2013-01-31 12:31:00,
2013-01-31 07:36:00,54.1,54.0,29.17,SSE,157,8.6,25.2,100,0.30,,,0.36,Rainwise IP-100,2013-01-31 12:36:00,
2013-01-31 07:41:00,54.1,54.0,29.17,North,360,4.2,18.2,100,0.12,,,0.37,Rainwise IP-100,2013-01-31 12:41:00,
2013-01-31 07:46:00,53.9,54.0,29.18,North,360,7.2,23.8,100,0.12,,,0.37,Rainwise IP-100,2013-01-31 12:46:00,
2013-01-31 07:51:00,53.9,54.0,29.18,North,360,12.8,18.9,100,0.06,,,0.38,Rainwise IP-100,2013-01-31 12:51:00,
2013-01-31 07:56:00,54.0,54.0,29.17,SSE,157,7.2,16.3,100,0.06,,,0.38,Rainwise IP-100,2013-01-31 12:56:00,
2013-01-31 08:01:00,54.2,54.0,29.17,North,360,9.6,10.0,100,0.00,,,0.38,Rainwise IP-100,2013-01-31 13:01:00,
2013-01-31 08:06:00,54.8,55.0,29.17,North,360,6.1,20.1,100,0.48,,,0.46,Rainwise IP-100,2013-01-31 13:06:00,
2013-01-31 08:11:00,55.2,55.0,29.18,SSE,157,4.0,14.2,100,0.60,,,0.48,Rainwise IP-100,2013-01-31 13:11:00,
2013-01-31 08:16:00,55.5,56.0,29.17,NW,315,1.4,21.2,100,0.12,,,0.48,Rainwise IP-100,2013-01-31 13:16:00,
2013-01-31 08:21:00,55.7,56.0,29.17,North,360,7.2,24.2,100,0.06,,,0.49,Rainwise IP-100,2013-01-31 13:21:00,
2013-01-31 08:26:00,55.9,56.0,29.16,North,360,12.1,16.3,100,0.06,,,0.49,Rainwise IP-100,2013-01-31 13:26:00,
2013-01-31 08:31:00,55.8,56.0,29.16,North,360,10.0,17.0,100,0.00,,,0.49,Rainwise IP-100,2013-01-31 13:31:00,
2013-01-31 08:36:00,55.4,55.0,29.16,North,360,2.8,11.0,100,0.00,,,0.49,Rainwise IP-100,2013-01-31 13:36:00,
2013-01-31 08:41:00,55.2,55.0,29.15,North,360,3.7,11.7,100,0.00,,,0.49,Rainwise IP-100,2013-01-31 13:41:00,
2013-01-31 08:46:00,55.1,55.0,29.15,North,360,4.2,16.3,100,0.00,,,0.49,Rainwise IP-100,2013-01-31 13:46:00,
2013-01-31 08:51:00,55.1,55.0,29.15,North,360,14.0,15.2,100,0.00,,,0.49,Rainwise IP-100,2013-01-31 13:51:00,
2013-01-31 08:56:00,55.3,55.0,29.15,North,360,7.2,17.5,100,0.06,,,0.50,Rainwise IP-100,2013-01-31 13:56:00,
2013-01-31 09:01:00,55.6,56.0,29.14,North,360,10.5,22.4,100,0.12,,,0.51,Rainwise IP-100,2013-01-31 14:01:00,
2013-01-31 09:06:00,55.6,56.0,29.16,North,360,9.8,23.3,100,0.06,,,0.51,Rainwise IP-100,2013-01-31 14:06:00,
2013-01-31 09:11:00,55.4,55.0,29.15,North,360,3.7,18.4,100,0.00,,,0.51,Rainwise IP-100,2013-01-31 14:11:00,
2013-01-31 09:16:00,55.3,55.0,29.16,ENE,67,3.0,17.3,100,0.00,,,0.51,Rainwise IP-100,2013-01-31 14:16:00,
2013-01-31 09:21:00,55.0,55.0,29.16,North,360,10.0,19.6,100,0.00,,,0.51,Rainwise IP-100,2013-01-31 14:21:00,
2013-01-31 09:26:00,54.7,54.5,29.16,NW,315,3.3,12.8,100,0.00,,,0.51,Rainwise IP-100,2013-01-31 14:26:00,
2013-01-31 09:31:00,54.4,54.5,29.16,North,360,8.6,13.3,100,0.00,,,0.51,Rainwise IP-100,2013-01-31 14:31:00,
2013-01-31 09:36:00,54.3,54.5,29.16,North,360,17.0,17.0,100,0.06,,,0.52,Rainwise IP-100,2013-01-31 14:36:00,
2013-01-31 09:41:00,53.9,54.0,29.16,North,360,6.5,18.2,100,0.06,,,0.52,Rainwise IP-100,2013-01-31 14:41:00,
2013-01-31 09:46:00,53.7,53.5,29.16,North,360,20.8,20.8,100,0.00,,,0.52,Rainwise IP-100,2013-01-31 14:46:00,
2013-01-31 09:51:00,53.7,53.5,29.16,North,360,16.8,37.3,99,0.00,,,0.52,Rainwise IP-100,2013-01-31 14:51:00,
2013-01-31 09:56:00,53.4,53.5,29.18,North,360,17.0,37.3,99,0.12,,,0.54,Rainwise IP-100,2013-01-31 14:56:00,
2013-01-31 10:01:00,52.7,53.0,29.17,North,360,13.8,24.2,99,0.12,,,0.54,Rainwise IP-100,2013-01-31 15:01:00,
2013-01-31 10:06:00,52.1,51.0,29.18,North,360,14.0,19.6,98,0.00,,,0.54,Rainwise IP-100,2013-01-31 15:06:00,
2013-01-31 10:11:00,51.7,51.0,29.18,NW,315,9.8,24.7,98,0.00,,,0.54,Rainwise IP-100,2013-01-31 15:11:00,
2013-01-31 10:16:00,51.2,50.5,29.18,WSW,247,12.1,22.2,97,0.00,,,0.54,Rainwise IP-100,2013-01-31 15:16:00,
2013-01-31 10:21:00,50.8,50.0,29.18,WNW,292,10.5,22.9,95,0.00,,,0.54,Rainwise IP-100,2013-01-31 15:21:00,
2013-01-31 10:26:00,50.3,48.0,29.19,SSW,202,8.4,19.8,93,0.00,,,0.54,Rainwise IP-100,2013-01-31 15:26:00,
2013-01-31 10:31:00,49.5,47.5,29.20,WNW,292,12.8,18.0,92,0.00,,,0.54,Rainwise IP-100,2013-01-31 15:31:00,
2013-01-31 10:36:00,48.7,47.0,29.20,WSW,247,8.2,22.9,91,0.00,,,0.54,Rainwise IP-100,2013-01-31 15:36:00,
2013-01-31 10:41:00,48.3,46.0,29.20,West,270,6.1,21.2,90,0.00,,,0.54,Rainwise IP-100,2013-01-31 15:41:00,
2013-01-31 10:46:00,48.1,45.0,29.20,WSW,247,19.1,22.2,89,0.00,,,0.54,Rainwise IP-100,2013-01-31 15:46:00,
2013-01-31 10:51:00,48.1,45.0,29.21,SW,225,4.4,25.4,88,0.00,,,0.54,Rainwise IP-100,2013-01-31 15:51:00,
2013-01-31 10:56:00,48.1,44.0,29.21,SW,225,10.0,17.5,86,0.00,,,0.54,Rainwise IP-100,2013-01-31 15:56:00,
2013-01-31 11:01:00,48.1,44.0,29.22,WSW,247,2.3,20.5,85,0.00,,,0.54,Rainwise IP-100,2013-01-31 16:01:00,
2013-01-31 11:06:00,48.0,43.0,29.21,West,270,9.1,19.4,83,0.00,,,0.54,Rainwise IP-100,2013-01-31 16:06:00,
2013-01-31 11:11:00,48.0,43.0,29.21,WSW,247,6.1,19.6,83,0.00,,,0.54,Rainwise IP-100,2013-01-31 16:11:00,
2013-01-31 11:16:00,48.0,43.0,29.22,WSW,247,8.4,20.8,83,0.00,,,0.54,Rainwise IP-100,2013-01-31 16:16:00,
2013-01-31 11:21:00,47.8,44.0,29.22,WSW,247,5.1,24.7,84,0.00,,,0.54,Rainwise IP-100,2013-01-31 16:21:00,
2013-01-31 11:26:00,47.6,43.0,29.23,WNW,292,8.6,16.6,85,0.00,,,0.54,Rainwise IP-100,2013-01-31 16:26:00,
2013-01-31 11:31:00,47.4,43.0,29.23,WNW,292,15.9,17.3,85,0.00,,,0.54,Rainwise IP-100,2013-01-31 16:31:00,
2013-01-31 11:36:00,47.3,43.0,29.23,NW,315,11.9,21.0,84,0.00,,,0.54,Rainwise IP-100,2013-01-31 16:36:00,
2013-01-31 11:41:00,47.3,42.0,29.23,SSE,157,3.0,21.5,82,0.00,,,0.54,Rainwise IP-100,2013-01-31 16:41:00,
2013-01-31 11:46:00,47.3,41.0,29.23,West,270,7.0,21.7,80,0.00,,,0.54,Rainwise IP-100,2013-01-31 16:46:00,
2013-01-31 11:51:00,47.4,41.0,29.23,West,270,7.5,19.8,78,0.00,,,0.54,Rainwise IP-100,2013-01-31 16:51:00,
2013-01-31 11:56:00,47.8,41.0,29.23,WNW,292,11.7,22.4,76,0.00,,,0.54,Rainwise IP-100,2013-01-31 16:56:00,
2013-01-31 12:01:00,47.8,41.0,29.24,SSW,202,8.6,20.8,75,0.00,,,0.54,Rainwise IP-100,2013-01-31 17:01:00,
2013-01-31 12:06:00,47.5,40.0,29.24,WNW,292,15.2,21.0,75,0.00,,,0.54,Rainwise IP-100,2013-01-31 17:06:00,
2013-01-31 12:11:00,47.3,40.0,29.23,WSW,247,7.7,18.0,75,0.00,,,0.54,Rainwise IP-100,2013-01-31 17:11:00,
2013-01-31 12:16:00,47.1,39.0,29.24,WNW,292,9.3,18.0,76,0.00,,,0.54,Rainwise IP-100,2013-01-31 17:16:00,
2013-01-31 12:21:00,47.0,39.0,29.25,WNW,292,7.0,18.4,76,0.00,,,0.54,Rainwise IP-100,2013-01-31 17:21:00,
2013-01-31 12:26:00,47.3,40.0,29.24,WNW,292,14.2,21.0,76,0.00,,,0.54,Rainwise IP-100,2013-01-31 17:26:00,
2013-01-31 12:31:00,47.9,41.0,29.25,SSW,202,4.2,17.0,76,0.00,,,0.54,Rainwise IP-100,2013-01-31 17:31:00,
2013-01-31 12:36:00,48.4,41.0,29.25,WSW,247,12.4,19.6,75,0.00,,,0.54,Rainwise IP-100,2013-01-31 17:36:00,
2013-01-31 12:41:00,48.6,41.0,29.25,WNW,292,8.6,16.8,75,0.00,,,0.54,Rainwise IP-100,2013-01-31 17:41:00,
2013-01-31 12:46:00,48.4,40.0,29.26,WNW,292,5.1,16.8,74,0.00,,,0.54,Rainwise IP-100,2013-01-31 17:46:00,
2013-01-31 12:51:00,48.0,40.0,29.26,WNW,292,10.0,18.0,74,0.00,,,0.54,Rainwise IP-100,2013-01-31 17:51:00,
2013-01-31 12:56:00,47.9,40.0,29.27,WSW,247,12.6,18.0,74,0.00,,,0.54,Rainwise IP-100,2013-01-31 17:56:00,
2013-01-31 13:01:00,48.1,40.0,29.26,West,270,6.5,12.6,73,0.00,,,0.54,Rainwise IP-100,2013-01-31 18:01:00,
2013-01-31 13:06:00,48.4,39.0,29.27,WNW,292,8.4,25.6,72,0.00,,,0.54,Rainwise IP-100,2013-01-31 18:06:00,
2013-01-31 13:11:00,48.1,39.0,29.27,West,270,7.9,19.1,71,0.00,,,0.54,Rainwise IP-100,2013-01-31 18:11:00,
2013-01-31 13:16:00,47.1,38.0,29.28,WSW,247,11.0,14.2,72,0.00,,,0.54,Rainwise IP-100,2013-01-31 18:16:00,
2013-01-31 13:21:00,46.5,38.0,29.28,WNW,292,7.2,16.3,72,0.00,,,0.54,Rainwise IP-100,2013-01-31 18:21:00,
2013-01-31 13:26:00,46.3,37.0,29.28,West,270,8.9,20.5,72,0.00,,,0.54,Rainwise IP-100,2013-01-31 18:26:00,
2013-01-31 13:31:00,46.5,38.0,29.29,West,270,8.9,17.7,72,0.00,,,0.54,Rainwise IP-100,2013-01-31 18:31:00,
2013-01-31 13:36:00,46.8,37.0,29.28,SSW,202,10.5,20.5,70,0.00,,,0.54,Rainwise IP-100,2013-01-31 18:36:00,
2013-01-31 13:41:00,46.9,37.0,29.29,WSW,247,12.6,20.3,68,0.00,,,0.54,Rainwise IP-100,2013-01-31 18:41:00,
2013-01-31 13:46:00,47.0,36.0,29.29,WSW,247,10.7,18.4,67,0.00,,,0.54,Rainwise IP-100,2013-01-31 18:46:00,
2013-01-31 13:51:00,47.1,36.0,29.30,WSW,247,25.6,25.6,66,0.00,,,0.54,Rainwise IP-100,2013-01-31 18:51:00,
2013-01-31 13:56:00,47.0,36.0,29.30,WNW,292,19.4,25.6,65,0.00,,,0.54,Rainwise IP-100,2013-01-31 18:56:00,
2013-01-31 14:01:00,46.7,36.0,29.30,WNW,292,4.0,20.1,65,0.00,,,0.54,Rainwise IP-100,2013-01-31 19:01:00,
2013-01-31 14:06:00,46.5,35.0,29.31,West,270,17.0,25.9,64,0.00,,,0.54,Rainwise IP-100,2013-01-31 19:06:00,
2013-01-31 14:11:00,46.5,35.0,29.31,WNW,292,12.1,25.9,64,0.00,,,0.54,Rainwise IP-100,2013-01-31 19:11:00,
2013-01-31 14:16:00,46.4,35.0,29.31,WSW,247,8.9,16.8,63,0.00,,,0.54,Rainwise IP-100,2013-01-31 19:16:00,
2013-01-31 14:21:00,46.4,35.0,29.32,WSW,247,14.2,23.8,64,0.00,,,0.54,Rainwise IP-100,2013-01-31 19:21:00,
2013-01-31 14:26:00,46.3,35.0,29.32,North,360,12.1,22.6,64,0.00,,,0.54,Rainwise IP-100,2013-01-31 19:26:00,
2013-01-31 14:31:00,46.3,35.0,29.32,WNW,292,10.7,20.8,63,0.00,,,0.54,Rainwise IP-100,2013-01-31 19:31:00,
2013-01-31 14:36:00,46.1,35.0,29.33,WNW,292,17.0,18.4,63,0.00,,,0.54,Rainwise IP-100,2013-01-31 19:36:00,
2013-01-31 14:41:00,45.8,35.0,29.34,WSW,247,8.4,25.9,63,0.00,,,0.54,Rainwise IP-100,2013-01-31 19:41:00,
2013-01-31 14:46:00,45.6,33.0,29.34,West,270,18.9,25.6,62,0.00,,,0.54,Rainwise IP-100,2013-01-31 19:46:00,
2013-01-31 14:51:00,45.5,33.0,29.35,WSW,247,9.6,24.9,61,0.18,,,0.57,Rainwise IP-100,2013-01-31 19:51:00,
2013-01-31 14:56:00,45.5,33.0,29.34,WNW,292,5.4,16.8,61,0.18,,,0.57,Rainwise IP-100,2013-01-31 19:56:00,
2013-01-31 15:01:00,45.4,32.0,29.34,WSW,247,8.4,23.8,61,0.00,,,0.57,Rainwise IP-100,2013-01-31 20:01:00,
2013-01-31 15:06:00,45.3,32.0,29.35,WNW,292,22.6,22.6,61,0.00,,,0.57,Rainwise IP-100,2013-01-31 20:06:00,
2013-01-31 15:11:00,45.2,32.0,29.35,WNW,292,18.0,22.6,61,0.00,,,0.57,Rainwise IP-100,2013-01-31 20:11:00,
2013-01-31 15:16:00,44.9,33.0,29.35,WNW,292,13.5,21.9,62,0.00,,,0.57,Rainwise IP-100,2013-01-31 20:16:00,
2013-01-31 15:21:00,44.7,33.0,29.37,WNW,292,6.1,23.8,62,0.00,,,0.57,Rainwise IP-100,2013-01-31 20:21:00,
2013-01-31 15:26:00,44.5,33.0,29.38,WNW,292,11.7,21.9,62,0.00,,,0.57,Rainwise IP-100,2013-01-31 20:26:00,
2013-01-31 15:31:00,44.3,32.0,29.36,WSW,247,10.3,18.4,62,0.00,,,0.57,Rainwise IP-100,2013-01-31 20:31:00,
2013-01-31 15:36:00,44.1,32.0,29.37,WNW,292,20.3,22.6,62,0.00,,,0.57,Rainwise IP-100,2013-01-31 20:36:00,
2013-01-31 15:41:00,43.9,32.0,29.38,WNW,292,13.1,22.9,62,0.00,,,0.57,Rainwise IP-100,2013-01-31 20:41:00,
2013-01-31 15:46:00,43.7,32.0,29.38,WNW,292,11.9,28.4,61,0.00,,,0.57,Rainwise IP-100,2013-01-31 20:46:00,
2013-01-31 15:51:00,43.7,32.0,29.38,WSW,247,11.2,17.3,61,0.00,,,0.57,Rainwise IP-100,2013-01-31 20:51:00,
2013-01-31 15:56:00,43.6,32.0,29.41,WNW,292,14.2,18.9,61,0.00,,,0.57,Rainwise IP-100,2013-01-31 20:56:00,
2013-01-31 16:01:00,43.5,32.0,29.41,WNW,292,11.9,20.5,61,0.00,,,0.57,Rainwise IP-100,2013-01-31 21:01:00,
2013-01-31 16:06:00,43.4,31.0,29.41,WNW,292,7.0,19.4,61,0.00,,,0.57,Rainwise IP-100,2013-01-31 21:06:00,
2013-01-31 16:11:00,43.3,31.0,29.40,WNW,292,16.1,17.5,61,0.00,,,0.57,Rainwise IP-100,2013-01-31 21:11:00,
2013-01-31 16:16:00,43.2,31.0,29.40,WNW,292,5.8,21.7,60,0.00,,,0.57,Rainwise IP-100,2013-01-31 21:16:00,
2013-01-31 16:21:00,43.1,31.0,29.41,WNW,292,9.6,21.2,60,0.00,,,0.57,Rainwise IP-100,2013-01-31 21:21:00,
2013-01-31 16:26:00,43.1,31.0,29.40,West,270,11.2,24.7,60,0.00,,,0.57,Rainwise IP-100,2013-01-31 21:26:00,
2013-01-31 16:31:00,42.9,31.0,29.42,WSW,247,13.1,27.7,60,0.00,,,0.57,Rainwise IP-100,2013-01-31 21:31:00,
2013-01-31 16:36:00,42.8,31.0,29.42,WNW,292,19.1,19.1,60,0.00,,,0.57,Rainwise IP-100,2013-01-31 21:36:00,
2013-01-31 16:41:00,42.6,31.0,29.42,SW,225,7.5,20.5,60,0.00,,,0.57,Rainwise IP-100,2013-01-31 21:41:00,
2013-01-31 16:46:00,42.3,29.0,29.43,West,270,13.8,15.2,61,0.00,,,0.57,Rainwise IP-100,2013-01-31 21:46:00,
2013-01-31 16:51:00,42.2,31.0,29.43,West,270,2.6,16.3,62,0.00,,,0.57,Rainwise IP-100,2013-01-31 21:51:00,
2013-01-31 16:56:00,42.0,31.0,29.44,WNW,292,5.4,24.0,62,0.00,,,0.57,Rainwise IP-100,2013-01-31 21:56:00,
2013-01-31 17:01:00,41.9,31.0,29.44,WNW,292,9.6,18.4,63,0.00,,,0.57,Rainwise IP-100,2013-01-31 22:01:00,
2013-01-31 17:06:00,41.8,31.0,29.44,WNW,292,17.5,17.5,63,0.00,,,0.57,Rainwise IP-100,2013-01-31 22:06:00,
2013-01-31 17:11:00,41.7,31.0,29.44,WSW,247,14.9,17.5,62,0.00,,,0.57,Rainwise IP-100,2013-01-31 22:11:00,
2013-01-31 17:16:00,41.8,29.0,29.44,WNW,292,13.5,24.2,60,0.00,,,0.57,Rainwise IP-100,2013-01-31 22:16:00,
2013-01-31 17:21:00,41.8,29.0,29.46,NNE,22,4.4,17.7,59,0.00,,,0.57,Rainwise IP-100,2013-01-31 22:21:00,
2013-01-31 17:26:00,41.6,29.0,29.46,WNW,292,17.7,21.9,59,0.00,,,0.57,Rainwise IP-100,2013-01-31 22:26:00,
2013-01-31 17:31:00,41.5,29.0,29.43,WSW,247,11.4,22.2,59,0.00,,,0.57,Rainwise IP-100,2013-01-31 22:31:00,
2013-01-31 17:36:00,41.4,28.0,29.47,WNW,292,11.9,22.2,58,0.00,,,0.57,Rainwise IP-100,2013-01-31 22:36:00,
2013-01-31 17:41:00,41.4,28.0,29.47,NNW,337,14.5,19.6,58,0.00,,,0.57,Rainwise IP-100,2013-01-31 22:41:00,
2013-01-31 17:46:00,41.3,28.0,29.46,WNW,292,17.5,27.7,58,0.00,,,0.57,Rainwise IP-100,2013-01-31 22:46:00,
2013-01-31 17:51:00,41.2,28.0,29.47,WSW,247,16.1,20.8,58,0.00,,,0.57,Rainwise IP-100,2013-01-31 22:51:00,
2013-01-31 17:56:00,41.2,28.0,29.48,WNW,292,9.1,26.1,59,0.00,,,0.57,Rainwise IP-100,2013-01-31 22:56:00,
2013-01-31 18:01:00,41.1,28.0,29.49,WNW,292,9.8,20.1,59,0.00,,,0.57,Rainwise IP-100,2013-01-31 23:01:00,
2013-01-31 18:06:00,41.0,28.0,29.49,NNE,22,4.4,23.3,59,0.00,,,0.57,Rainwise IP-100,2013-01-31 23:06:00,
2013-01-31 18:11:00,40.9,29.0,29.49,WNW,292,17.0,23.6,60,0.00,,,0.57,Rainwise IP-100,2013-01-31 23:11:00,
2013-01-31 18:16:00,40.9,29.0,29.49,WNW,292,14.9,29.4,60,0.00,,,0.57,Rainwise IP-100,2013-01-31 23:16:00,
2013-01-31 18:21:00,40.9,29.0,29.50,WNW,292,7.9,27.3,60,0.00,,,0.57,Rainwise IP-100,2013-01-31 23:21:00,
2013-01-31 18:26:00,40.9,29.0,29.49,WSW,247,16.6,22.4,60,0.00,,,0.57,Rainwise IP-100,2013-01-31 23:26:00,
2013-01-31 18:31:00,40.9,28.0,29.50,WSW,247,17.5,18.9,59,0.00,,,0.57,Rainwise IP-100,2013-01-31 23:31:00,
2013-01-31 18:36:00,40.8,28.0,29.51,WSW,247,8.4,21.9,59,0.00,,,0.57,Rainwise IP-100,2013-01-31 23:36:00,
2013-01-31 18:41:00,40.8,28.0,29.51,WNW,292,14.7,19.8,59,0.00,,,0.57,Rainwise IP-100,2013-01-31 23:41:00,
2013-01-31 18:46:00,40.8,28.0,29.51,WSW,247,18.9,18.9,58,0.00,,,0.57,Rainwise IP-100,2013-01-31 23:46:00,
2013-01-31 18:51:00,40.8,28.0,29.51,WNW,292,11.7,18.9,58,0.00,,,0.57,Rainwise IP-100,2013-01-31 23:51:00,
2013-01-31 18:56:00,40.7,28.0,29.52,WNW,292,10.7,22.2,59,0.00,,,0.57,Rainwise IP-100,2013-01-31 23:56:00,
2013-01-31 19:01:00,40.6,28.0,29.50,WNW,292,11.2,27.7,59,0.00,,,0.57,Rainwise IP-100,2013-02-01 00:01:00,
2013-01-31 19:06:00,40.6,29.0,29.51,WNW,292,13.8,29.6,60,0.00,,,0.57,Rainwise IP-100,2013-02-01 00:06:00,
2013-01-31 19:11:00,40.6,29.0,29.52,WNW,292,9.3,29.6,60,0.00,,,0.57,Rainwise IP-100,2013-02-01 00:11:00,
2013-01-31 19:16:00,40.5,28.0,29.53,NNW,337,18.0,22.9,59,0.00,,,0.57,Rainwise IP-100,2013-02-01 00:16:00,
2013-01-31 19:21:00,40.5,28.0,29.52,WNW,292,14.5,23.8,59,0.00,,,0.57,Rainwise IP-100,2013-02-01 00:21:00,
2013-01-31 19:26:00,40.5,28.0,29.53,WNW,292,12.4,21.9,59,0.00,,,0.57,Rainwise IP-100,2013-02-01 00:26:00,
2013-01-31 19:31:00,40.5,28.0,29.54,WNW,292,23.6,27.0,59,0.00,,,0.57,Rainwise IP-100,2013-02-01 00:31:00,
2013-01-31 19:36:00,40.5,28.0,29.53,WNW,292,12.6,23.6,58,0.00,,,0.57,Rainwise IP-100,2013-02-01 00:36:00,
2013-01-31 19:41:00,40.4,28.0,29.55,WNW,292,13.8,25.4,58,0.00,,,0.57,Rainwise IP-100,2013-02-01 00:41:00,
2013-01-31 19:46:00,40.3,28.0,29.54,WNW,292,4.0,20.5,59,0.00,,,0.57,Rainwise IP-100,2013-02-01 00:46:00,
2013-01-31 19:51:00,40.2,28.0,29.55,NW,315,7.5,20.8,59,0.00,,,0.57,Rainwise IP-100,2013-02-01 00:51:00,
2013-01-31 19:56:00,40.0,28.0,29.55,WNW,292,13.1,21.7,59,0.00,,,0.57,Rainwise IP-100,2013-02-01 00:56:00,
2013-01-31 20:01:00,39.8,28.0,29.56,WSW,247,7.0,22.4,59,0.00,,,0.57,Rainwise IP-100,2013-02-01 01:01:00,
2013-01-31 20:06:00,39.7,28.0,29.55,WNW,292,9.8,23.3,60,0.00,,,0.57,Rainwise IP-100,2013-02-01 01:06:00,
2013-01-31 20:11:00,39.5,28.0,29.55,WNW,292,13.5,18.9,61,0.00,,,0.57,Rainwise IP-100,2013-02-01 01:11:00,
2013-01-31 20:16:00,39.3,28.0,29.56,NW,315,12.6,21.2,61,0.00,,,0.57,Rainwise IP-100,2013-02-01 01:16:00,
2013-01-31 20:21:00,39.3,26.0,29.57,WNW,292,16.8,19.4,60,0.00,,,0.57,Rainwise IP-100,2013-02-01 01:21:00,
2013-01-31 20:26:00,39.2,26.0,29.57,WNW,292,12.4,23.8,58,0.00,,,0.57,Rainwise IP-100,2013-02-01 01:26:00,
2013-01-31 20:31:00,39.3,26.0,29.57,WNW,292,15.4,20.5,57,0.00,,,0.57,Rainwise IP-100,2013-02-01 01:31:00,
2013-01-31 20:36:00,39.2,24.0,29.57,West,270,8.9,23.3,56,0.00,,,0.57,Rainwise IP-100,2013-02-01 01:36:00,
2013-01-31 20:41:00,39.1,26.0,29.58,WSW,247,5.4,23.6,57,0.00,,,0.57,Rainwise IP-100,2013-02-01 01:41:00,
2013-01-31 20:46:00,38.9,24.0,29.58,West,270,8.4,20.8,56,0.00,,,0.57,Rainwise IP-100,2013-02-01 01:46:00,
2013-01-31 20:51:00,38.7,24.0,29.58,WNW,292,6.5,18.4,53,0.00,,,0.57,Rainwise IP-100,2013-02-01 01:51:00,
2013-01-31 20:56:00,38.5,23.0,29.58,WNW,292,11.7,15.9,51,0.00,,,0.57,Rainwise IP-100,2013-02-01 01:56:00,
2013-01-31 21:01:00,38.4,23.0,29.58,NE,45,13.5,20.8,50,0.00,,,0.57,Rainwise IP-100,2013-02-01 02:01:00,
2013-01-31 21:06:00,38.3,21.0,29.58,WNW,292,5.4,17.5,49,0.00,,,0.57,Rainwise IP-100,2013-02-01 02:06:00,
2013-01-31 21:11:00,38.3,21.0,29.59,WNW,292,10.3,17.3,48,0.00,,,0.57,Rainwise IP-100,2013-02-01 02:11:00,
2013-01-31 21:16:00,38.1,21.0,29.59,WNW,292,16.1,22.4,48,0.00,,,0.57,Rainwise IP-100,2013-02-01 02:16:00,
2013-01-31 21:21:00,37.8,21.0,29.60,NNE,22,12.8,26.8,49,0.00,,,0.57,Rainwise IP-100,2013-02-01 02:21:00,
2013-01-31 21:26:00,37.6,21.0,29.60,SSE,157,9.1,23.3,49,0.00,,,0.57,Rainwise IP-100,2013-02-01 02:26:00,
2013-01-31 21:31:00,37.4,21.0,29.61,WNW,292,7.2,22.4,49,0.00,,,0.57,Rainwise IP-100,2013-02-01 02:31:00,
2013-01-31 21:36:00,37.3,21.0,29.60,NNW,337,5.4,25.2,50,0.00,,,0.57,Rainwise IP-100,2013-02-01 02:36:00,
2013-01-31 21:41:00,37.1,21.0,29.61,NNW,337,8.2,28.2,50,0.00,,,0.57,Rainwise IP-100,2013-02-01 02:41:00,
2013-01-31 21:46:00,36.9,21.0,29.61,WNW,292,11.4,30.1,50,0.00,,,0.57,Rainwise IP-100,2013-02-01 02:46:00,
2013-01-31 21:51:00,36.6,21.0,29.61,WNW,292,10.0,22.2,49,0.00,,,0.57,Rainwise IP-100,2013-02-01 02:51:00,
2013-01-31 21:56:00,36.5,21.0,29.62,West,270,13.1,21.9,49,0.00,,,0.57,Rainwise IP-100,2013-02-01 02:56:00,
2013-01-31 22:01:00,36.3,18.0,29.61,WNW,292,10.5,17.7,49,0.00,,,0.57,Rainwise IP-100,2013-02-01 03:01:00,
2013-01-31 22:06:00,36.1,18.0,29.61,West,270,12.4,20.5,49,0.00,,,0.57,Rainwise IP-100,2013-02-01 03:06:00,
2013-01-31 22:11:00,35.9,18.0,29.62,WNW,292,12.4,23.6,49,0.00,,,0.57,Rainwise IP-100,2013-02-01 03:11:00,
2013-01-31 22:16:00,35.7,18.0,29.62,WNW,292,13.5,16.3,49,0.00,,,0.57,Rainwise IP-100,2013-02-01 03:16:00,
2013-01-31 22:21:00,35.5,18.0,29.62,WNW,292,11.7,18.2,49,0.00,,,0.57,Rainwise IP-100,2013-02-01 03:21:00,
2013-01-31 22:26:00,35.3,18.0,29.63,WNW,292,7.0,13.5,50,0.00,,,0.57,Rainwise IP-100,2013-02-01 03:26:00,
2013-01-31 22:31:00,35.1,18.0,29.63,WNW,292,13.1,25.2,50,0.00,,,0.57,Rainwise IP-100,2013-02-01 03:31:00,
2013-01-31 22:36:00,34.9,18.0,29.63,WNW,292,14.0,26.6,50,0.00,,,0.57,Rainwise IP-100,2013-02-01 03:36:00,
2013-01-31 22:41:00,34.8,18.0,29.63,WNW,292,10.3,28.0,50,0.00,,,0.57,Rainwise IP-100,2013-02-01 03:41:00,
2013-01-31 22:46:00,34.7,18.0,29.63,WNW,292,6.1,22.6,50,0.00,,,0.57,Rainwise IP-100,2013-02-01 03:46:00,
2013-01-31 22:51:00,34.6,18.0,29.64,WNW,292,14.5,16.3,51,0.00,,,0.57,Rainwise IP-100,2013-02-01 03:51:00,
2013-01-31 22:56:00,34.5,18.0,29.64,WNW,292,19.4,31.0,51,0.00,,,0.57,Rainwise IP-100,2013-02-01 03:56:00,
2013-01-31 23:01:00,34.4,18.0,29.64,WNW,292,10.7,23.6,50,0.00,,,0.57,Rainwise IP-100,2013-02-01 04:01:00,
2013-01-31 23:06:00,34.3,18.0,29.64,WNW,292,14.7,22.9,50,0.00,,,0.57,Rainwise IP-100,2013-02-01 04:06:00,
2013-01-31 23:11:00,34.4,18.0,29.65,WNW,292,7.5,18.9,50,0.00,,,0.57,Rainwise IP-100,2013-02-01 04:11:00,
2013-01-31 23:16:00,34.4,18.0,29.65,WNW,292,7.5,21.5,50,0.00,,,0.57,Rainwise IP-100,2013-02-01 04:16:00,
2013-01-31 23:21:00,34.4,18.0,29.65,WNW,292,9.1,14.2,50,0.00,,,0.57,Rainwise IP-100,2013-02-01 04:21:00,
2013-01-31 23:26:00,34.4,18.0,29.65,WNW,292,11.4,24.2,50,0.00,,,0.57,Rainwise IP-100,2013-02-01 04:26:00,
2013-01-31 23:31:00,34.3,18.0,29.65,WNW,292,9.8,18.4,50,0.00,,,0.57,Rainwise IP-100,2013-02-01 04:31:00,
2013-01-31 23:36:00,34.3,18.0,29.65,NW,315,14.0,18.9,49,0.00,,,0.57,Rainwise IP-100,2013-02-01 04:36:00,
2013-01-31 23:41:00,34.1,18.0,29.65,NW,315,3.7,23.1,48,0.00,,,0.57,Rainwise IP-100,2013-02-01 04:41:00,
2013-01-31 23:46:00,33.9,16.0,29.65,West,270,9.8,24.0,46,0.00,,,0.57,Rainwise IP-100,2013-02-01 04:46:00,
2013-01-31 23:51:00,33.6,16.0,29.66,WNW,292,18.0,20.5,45,0.00,,,0.57,Rainwise IP-100,2013-02-01 04:51:00,
2013-01-31 23:56:00,33.5,16.0,29.66,NW,315,15.4,18.0,45,0.00,,,0.57,Rainwise IP-100,2013-02-01 04:56:00,